Showing default

TOMORROW-R2, 56962

Orbit data source: Space-Track

TOMORROW-R2, 56962 is a payload satellite owned by Tomorrow.io (US) in SSO that was launched on Mon, 12 Jun 2023 UTC via an FALCON 9 launch vehicle from the Air Force Western Test Range (AFWTR). Payload-class satellites include a variety of spacecraft equipped with specific instruments for various scientific and technological missions. These include communications satellites like Starlink; space stations such as the ISS; scientific satellites like the Hubble; Earth observation satellites from companies like Planet Labs, Umbra, and HawkEye 360; GPS; miniature CubeSats for education and research; and military/defense satellites.

Loading next visibility...
Identifier
56962, 2023-084AG
Orbit
SSO
Last TLE update
18 hours ago
Origin
Manufacturer
Astro Digital
Mission
Operational Commercial Radar Imaging
Bus & Motor
CORVUS-XL, Unknown motor
Mass
85 kg wet, 85 kg dry
Launch date (UTC)
2023-06-12 (2 years ago)
Launch vehicle
FALCON 9
Launch site
Air Force Western Test Range (AFWTR)
Object type
Payload
Rocket body
Debris
Shape & HBR
Box + 1 Dish, 2 m
Radar Cross Section
0.425 m², Medium (>0.1 m² and < 1m²)

Expand to show TLE details & history

TLE from 18 hours ago
0 TOMORROW-R2
1 56962U 23084AG  25191.33999219  .00013960  00000-0  29929-3 0  9991
2 56962  97.5754 324.9272 0008227  75.3886 284.8274 15.44829604115625
Epoch: 2025-07-10T08:09Z
TLE epoch observation values (Epoch: 2025-07-10T08:09:35.325Z)
Latitude
0.00001°
Longitude
-85.97767°
Altitude
433.568 km
Speed
7.652 km/s
True Right ascension
21h 39m 42s
True Declination
0° 00' 00"
Sunlit
Object was in full shadow at epoch
Visualization orbit readout
Latitude
-12.2825°
Longitude
93.15122°
Altitude
440.092 km
Speed
7.646 km/s
Apparent Right ascension
06h 46m 59s
Apparent Declination
-38° 37' 56"
Sunlit
Object is in daylight
Visualization observer readout
Local Sidereal Time
14:21:49
Azimuth
248.809° W
Elevation
-39.906°
Doppler factor
1
Orbital elements
Apogee altitude
434.419 km
Perigee altitude
423.219 km
Semi-major axis
6,806.956 km
Eccentricity
0.00082
Inclination
97.5754°
RAAN
324.9272°
Arg. of periapsis
75.3886°
True anomaly
Unknown
Mean anomaly
284.8274°
Eccentric anomaly
Unknown
Mean motion
3.86468 °/min
Orbital period
93.15 mins
BSTAR
0.00029929
Loading maneuver chart data...
Loading SW <> Apogee altitude chart data...
Loading historical data...
Loading historical data...
Loading historical data...
Loading historical data...
Loading historical data...
Loading historical data...
Loading historical data...

TOMORROW-R2 Visibility forecast

Observer location: undefined°, undefined°

Span
Click to sort rows by Start time (UTC) header in descending order
Start Az.
Max El. time (UTC)
Max El. Az.
Max El.
End time (UTC)
End Az.
6 mins2025-07-11 09:09:19.412Z179.206° S2025-07-11 09:12:19.412Z265.234° W40.511°2025-07-11 09:15:19.412Z339.556° N
4 mins2025-07-11 22:02:19.412Z356.323° N2025-07-11 22:04:19.412Z265.127° W39.62°2025-07-11 22:06:19.412Z209.664° SW
|